• In Czech Republic
  • List of Countries
  • For 7 days
  • Water Temperature
  • Satellite Maps
  • Weather Map
  • Weather Widgets
  • user-avatar
    Login

    Hourly Weather Ghazni

    Today, 24 February, Saturday

    Time Temperature Precipitation Wind Pressure Humidity
    00:00 +1°C° 0.5 mm 3 mps 580 mmHg 89%
    01:00 +1°C° 0.5 mm 3 mps 580 mmHg 89%
    02:00 +2°C° 0.5 mm 2 mps 580 mmHg 90%
    03:00 +2°C° 0.4 mm 2 mps 580 mmHg 90%
    04:00 +2°C° 0.4 mm 2 mps 580 mmHg 91%
    05:00 +1°C° 0 mm 3 mps 580 mmHg 88%
    06:00 +2°C° 0.4 mm 2 mps 580 mmHg 87%
    07:00 +2°C° 0.4 mm 2 mps 581 mmHg 87%
    08:00 +4°C° 0.4 mm 1 mps 581 mmHg 86%
    09:00 +3°C° 0.1 mm 2 mps 582 mmHg 84%
    10:00 +4°C° 0.1 mm 2 mps 582 mmHg 82%
    11:00 +5°C° 0 mm 2 mps 582 mmHg 81%
    12:00 +4°C° 0.1 mm 3 mps 582 mmHg 78%
    13:00 +5°C° 0.1 mm 3 mps 582 mmHg 75%
    14:00 +6°C° 0.1 mm 4 mps 582 mmHg 73%
    15:00 +6°C° 0.1 mm 4 mps 583 mmHg 69%
    16:00 +7°C° 0.1 mm 4 mps 583 mmHg 66%
    17:00 +8°C° 0 mm 3 mps 582 mmHg 61%
    18:00 +7°C° 0 mm 3 mps 583 mmHg 64%
    19:00 +5°C° 0 mm 3 mps 583 mmHg 66%
    20:00 +4°C° 0 mm 3 mps 583 mmHg 68%
    21:00 +3°C° 0 mm 3 mps 583 mmHg 70%
    22:00 +3°C° 0 mm 3 mps 583 mmHg 71%
    23:00 +3°C° 0 mm 2 mps 583 mmHg 72%

    Tomorrow, 25 February, Sunday

    Time Temperature Precipitation Wind Pressure Humidity
    00:00 +3°C° 0 mm 2 mps 583 mmHg 73%
    01:00 +2°C° 0 mm 2 mps 583 mmHg 74%
    02:00 +2°C° 0 mm 2 mps 583 mmHg 74%
    03:00 +1°C° 0 mm 2 mps 583 mmHg 74%
    04:00 +1°C° 0 mm 2 mps 583 mmHg 74%
    05:00 +1°C° 0 mm 2 mps 583 mmHg 73%
    06:00 +1°C° 0 mm 2 mps 584 mmHg 71%
    07:00 +2°C° 0 mm 2 mps 584 mmHg 69%
    08:00 +2°C° 0 mm 2 mps 585 mmHg 67%
    09:00 +4°C° 0 mm 1 mps 586 mmHg 64%
    10:00 +6°C° 0 mm 1 mps 587 mmHg 61%
    11:00 +8°C° 0 mm 1 mps 587 mmHg 58%
    12:00 +8°C° 0 mm 1 mps 587 mmHg 57%
    13:00 +8°C° 0 mm 2 mps 587 mmHg 57%
    14:00 +9°C° 0 mm 2 mps 587 mmHg 56%
    15:00 +9°C° 0 mm 2 mps 587 mmHg 55%
    16:00 +10°C° 0 mm 2 mps 587 mmHg 54%
    17:00 +10°C° 0 mm 2 mps 586 mmHg 53%
    18:00 +9°C° 0 mm 2 mps 587 mmHg 55%
    19:00 +8°C° 0 mm 2 mps 587 mmHg 58%
    20:00 +8°C° 0 mm 2 mps 587 mmHg 61%
    21:00 +8°C° 0.1 mm 2 mps 587 mmHg 63%
    22:00 +7°C° 0.1 mm 2 mps 587 mmHg 66%
    23:00 +7°C° 0.1 mm 2 mps 587 mmHg 69%

    Day after tomorrow, 26 February, Monday

    Time Temperature Precipitation Wind Pressure Humidity
    00:00 +7°C° 0.6 mm 2 mps 586 mmHg 73%
    01:00 +7°C° 0.6 mm 2 mps 586 mmHg 78%
    02:00 +6°C° 0.6 mm 2 mps 586 mmHg 82%
    03:00 +6°C° 0.5 mm 2 mps 585 mmHg 84%
    04:00 +6°C° 0.5 mm 2 mps 585 mmHg 86%
    05:00 +6°C° 0.5 mm 2 mps 585 mmHg 88%
    06:00 +6°C° 0.2 mm 2 mps 585 mmHg 89%
    07:00 +5°C° 0.2 mm 3 mps 585 mmHg 89%
    08:00 +5°C° 0.2 mm 3 mps 586 mmHg 90%
    09:00 +7°C° 0 mm 3 mps 586 mmHg 85%
    10:00 +7°C° 0 mm 4 mps 586 mmHg 79%
    11:00 +8°C° 0 mm 5 mps 587 mmHg 73%
    12:00 +9°C° 0 mm 5 mps 586 mmHg 70%
    13:00 +10°C° 0 mm 6 mps 586 mmHg 66%
    14:00 +10°C° 0 mm 7 mps 586 mmHg 62%
    15:00 +10°C° 0 mm 6 mps 586 mmHg 61%
    16:00 +10°C° 0 mm 6 mps 585 mmHg 60%
    17:00 +10°C° 0 mm 6 mps 585 mmHg 59%
    18:00 +9°C° 0.4 mm 5 mps 585 mmHg 64%
    19:00 +8°C° 0.4 mm 5 mps 585 mmHg 68%
    20:00 +8°C° 0.4 mm 5 mps 585 mmHg 72%
    21:00 +7°C° 0.2 mm 5 mps 585 mmHg 75%
    22:00 +6°C° 0.2 mm 5 mps 585 mmHg 78%
    23:00 +6°C° 0.2 mm 5 mps 585 mmHg 80%

    27 February, Tuesday

    Time Temperature Precipitation Wind Pressure Humidity
    00:00 +5°C° 0 mm 4 mps 585 mmHg 83%
    01:00 +5°C° 0 mm 3 mps 584 mmHg 86%
    02:00 +5°C° 0 mm 2 mps 584 mmHg 89%
    03:00 +5°C° 0 mm 2 mps 584 mmHg 89%
    04:00 +4°C° 0 mm 2 mps 583 mmHg 90%
    05:00 +4°C° 0 mm 2 mps 583 mmHg 91%
    06:00 +4°C° 0 mm 2 mps 583 mmHg 89%
    07:00 +5°C° 0 mm 1 mps 583 mmHg 87%
    08:00 +5°C° 0 mm 1 mps 584 mmHg 85%
    09:00 +6°C° 0 mm 1 mps 585 mmHg 81%
    10:00 +8°C° 0 mm 1 mps 585 mmHg 78%
    11:00 +9°C° 0 mm 1 mps 586 mmHg 74%
    12:00 +9°C° 0 mm 2 mps 586 mmHg 69%
    13:00 +9°C° 0 mm 2 mps 586 mmHg 65%
    14:00 +10°C° 0 mm 2 mps 586 mmHg 61%
    15:00 +10°C° 0 mm 2 mps 586 mmHg 59%
    16:00 +10°C° 0 mm 2 mps 586 mmHg 57%
    17:00 +12°C° 0 mm 2 mps 586 mmHg 55%
    18:00 +10°C° 0.1 mm 2 mps 586 mmHg 58%
    19:00 +10°C° 0.1 mm 1 mps 586 mmHg 60%
    20:00 +10°C° 0.1 mm 1 mps 586 mmHg 62%
    21:00 +9°C° 0 mm 1 mps 586 mmHg 64%
    22:00 +9°C° 0 mm 1 mps 586 mmHg 67%
    23:00 +8°C° 0 mm 1 mps 586 mmHg 69%

    28 February, Wednesday

    Time Temperature Precipitation Wind Pressure Humidity
    00:00 +8°C° 0 mm 1 mps 585 mmHg 71%
    01:00 +7°C° 0 mm 1 mps 585 mmHg 72%
    02:00 +6°C° 0 mm 1 mps 584 mmHg 74%
    03:00 +6°C° 0 mm 1 mps 584 mmHg 74%
    04:00 +6°C° 0 mm 1 mps 584 mmHg 75%
    05:00 +6°C° 0 mm 1 mps 583 mmHg 75%
    06:00 +6°C° 0 mm 1 mps 584 mmHg 74%
    07:00 +6°C° 0 mm 1 mps 584 mmHg 73%
    08:00 +5°C° 0 mm 2 mps 585 mmHg 72%
    09:00 +7°C° 0 mm 1 mps 585 mmHg 70%
    10:00 +8°C° 0 mm 1 mps 586 mmHg 68%
    11:00 +10°C° 0 mm 1 mps 586 mmHg 67%
    12:00 +10°C° 0 mm 1 mps 586 mmHg 65%
    13:00 +10°C° 0 mm 2 mps 586 mmHg 63%
    14:00 +12°C° 0 mm 2 mps 585 mmHg 61%
    15:00 +12°C° 0.3 mm 2 mps 585 mmHg 60%
    16:00 +12°C° 0.3 mm 2 mps 585 mmHg 59%
    17:00 +12°C° 0.3 mm 2 mps 585 mmHg 58%
    18:00 +10°C° 0.5 mm 2 mps 585 mmHg 61%
    19:00 +10°C° 0.5 mm 2 mps 585 mmHg 65%
    20:00 +10°C° 0.5 mm 1 mps 585 mmHg 68%
    21:00 +9°C° 0.3 mm 1 mps 584 mmHg 71%
    22:00 +9°C° 0.3 mm 1 mps 584 mmHg 73%
    23:00 +8°C° 0.3 mm 1 mps 584 mmHg 76%

    1 March, Thursday

    Time Temperature Precipitation Wind Pressure Humidity
    00:00 +8°C° 0.4 mm 1 mps 584 mmHg 78%
    01:00 +8°C° 0.4 mm 1 mps 583 mmHg 79%
    02:00 +8°C° 0.4 mm 1 mps 583 mmHg 81%
    03:00 +8°C° 0.3 mm 1 mps 583 mmHg 81%
    04:00 +7°C° 0.3 mm 1 mps 583 mmHg 82%
    05:00 +7°C° 0.3 mm 1 mps 582 mmHg 83%
    06:00 +7°C° 0.3 mm 1 mps 582 mmHg 83%
    07:00 +7°C° 0.3 mm 1 mps 583 mmHg 82%
    08:00 +7°C° 0.3 mm 1 mps 583 mmHg 82%
    09:00 +8°C° 0.2 mm 1 mps 583 mmHg 80%
    10:00 +8°C° 0.2 mm 2 mps 583 mmHg 77%
    11:00 +8°C° 0.2 mm 2 mps 584 mmHg 75%
    12:00 +9°C° 0.2 mm 2 mps 584 mmHg 73%
    13:00 +9°C° 0.2 mm 2 mps 583 mmHg 71%
    14:00 +9°C° 0.2 mm 2 mps 583 mmHg 68%
    15:00 +9°C° 0.2 mm 2 mps 583 mmHg 68%
    16:00 +9°C° 0.2 mm 2 mps 582 mmHg 68%
    17:00 +9°C° 0.2 mm 2 mps 582 mmHg 67%
    18:00 +9°C° 0.1 mm 2 mps 582 mmHg 70%
    19:00 +8°C° 0.1 mm 2 mps 582 mmHg 72%
    20:00 +8°C° 0.1 mm 2 mps 582 mmHg 75%
    21:00 +7°C° 0.3 mm 2 mps 582 mmHg 76%
    22:00 +7°C° 0.3 mm 2 mps 582 mmHg 77%
    23:00 +7°C° 0.3 mm 2 mps 582 mmHg 78%
    Show more